Regional Weather Roundup
Issued by NWS

Home | Current Version | Previous Version | Text Only | Print | Product List | Glossary Off
Versions: 1 2 3 4 5 6 7 8 9 10 11 12 13 14 15 16 17 18 19 20 21 22 23 24 25 26 27 28 29 30 31 32 33 34 35 36 37 38 39 40 41 42 43 44 45 46 47 48 49 50

203
ASUS45 KBOU 250510
RWRCO

WEATHER ROUNDUP FOR COLORADO
NATIONAL WEATHER SERVICE DENVER/BOULDER CO
1100 PM MDT THU MAY 24 2018

NOTE: "FAIR" INDICATES FEW OR NO CLOUDS BELOW 12000 FEET WITH NO
SIGNIFICANT WEATHER AND/OR OBSTRUCTIONS TO VISIBILITY.

COZ001>005-013-030-031-250600-
...NORTHWEST COLORADO...

CITY           SKY/WX    TMP DP  RH WIND       PRES   REMARKS
CRAIG          FAIR      47  38  71 CALM      30.18R
HAYDEN         FAIR      51  37  58 S5        30.21S
MEEKER         FAIR      52  37  56 VRB5      30.19R
RANGELY        FAIR      58  35  42 CALM      30.09R
RABBIT EARS PA FAIR      48  23  37 W9        30.46S
STEAMBOAT SPGS FAIR      53  34  47 CALM      30.23R
WALDEN         FAIR      43  32  65 SE9       30.33S
$$

COZ006>008-011-250600-
...WEST CENTRAL VALLEYS...

CITY           SKY/WX    TMP DP  RH WIND       PRES   REMARKS
GRAND JUNCTION FAIR      65  21  18 E3        30.05S
MONTROSE       NOT AVBL
EAGLE          FAIR      57  28  33 SE3       30.23R
RIFLE          FAIR      60  29  30 E7        30.13R
DELTA          FAIR      67  26  20 NE9       30.11R
NUCLA          FAIR      64  10  12 E9        30.19S
$$

COZ017>023-064>068-250600-
...SOUTHWEST COLORADO...

CITY           SKY/WX    TMP DP  RH WIND       PRES   REMARKS
DURANGO        FAIR      53  18  25 N7        30.21S
CORTEZ         FAIR      54  17  23 NE9       30.16S
PAGOSA SPRINGS FAIR      50   0  12 CALM      30.30S
TELLURIDE      FAIR      54  18  24 SE5       30.41R
WOLF CREEK PAS FAIR      43   1  17 SW8       30.62S
$$

COZ009-010-012-014-032>034-037-058>063-250600-
...CENTRAL COLORADO...

CITY           SKY/WX    TMP DP  RH WIND       PRES   REMARKS
ASPEN          FAIR      51  27  39 SW9       30.29S
BUENA VISTA    FAIR      57  17  20 NW9       30.31R
COPPER MTN     FAIR      46  21  36 MISG      30.57F
BERTHOUD PASS  FAIR      37  28  70 NW10      30.60S
COTTONWOOD PAS FAIR      61  14  16 W8        30.43S
GUNNISON       FAIR      55  28  35 CALM      30.29R
GRANBY         FAIR      45  33  61 CALM      30.34S
KREMMLING      FAIR      50  36  57 CALM      30.29S
LEADVILLE      FAIR      39  24  55 N5        30.43R
MONARCH PASS   FAIR      46  16  29 MISG      30.68S
SALIDA         FAIR      64  30  27 E6        30.35S
SUNLIGHT       FAIR      50  14  23 W5        30.52R
WILKERSON PASS FAIR      46  21  36 S3        30.56S
$$

COZ069>075-250600-
...SAN LUIS VALLEY/SANGRE DE CRISTO MOUNTAINS...

CITY           SKY/WX    TMP DP  RH WIND       PRES   REMARKS
ALAMOSA        FAIR      49  19  30 SW7       30.25R
DEL NORTE      FAIR      60   8  12 W9        30.30S
LA VETA PASS   FAIR      48  32  53 N14G21    30.57S
SAGUACHE       NOT AVBL
$$

COZ035-036-038>040-250600-
...NORTHERN COLORADO FRONT RANGE...

CITY           SKY/WX    TMP DP  RH WIND       PRES   REMARKS
DENVER INTL AP FAIR      58  39  49 SE8       30.12R
AURORA         PTCLDY    61  41  48 S10       30.14R
FRONT RANGE AP FAIR      61  41  48 S9        30.13S
ERIE MUNI ARPT FAIR      59  42  53 S6        30.16S
BOULDER MUN AP FAIR      68  36  30 SW8       30.12S
CENTENNIAL     FAIR      60  40  47 SE7       30.16R
BROOMFIELD     FAIR      63  37  39 W5        30.15S
FORT COLLINS   FAIR      66  49  54 W3        30.10S
LONGMONT       FAIR      59  44  56 W8        30.12S
$$

COZ041-046-047-076>085-087-088-250600-
...PIKES PEAK/PALMER DIVIDE AND SOUTHERN FOOTHILLS...

CITY           SKY/WX    TMP DP  RH WIND       PRES   REMARKS
COLO. SPRINGS  FAIR      61  37  41 SE8       30.22R
A. F. ACADEMY  FAIR      51  37  58 N6        30.21S
SCHRIEVER AFB  NOT AVBL
CHEYENNE MTN   FAIR      66  33  29 S8        30.20R
ELLICOTT       NOT AVBL
FALCON         NOT AVBL
FORT CARSON    FAIR      62  36  38 S7        30.18R
LIMON          FAIR      47  41  80 CALM      30.14S
MONUMENT HILL  FAIR      55  34  44 SE10      30.26R
CANON CITY     CLEAR     66  37  34 NE5       30.15R
WALSENBURG     FAIR      63  39  42 N6        30.20S
TRINIDAD       FAIR      63  41  44 W9        30.13R
$$

COZ042>045-048>051-090-091-250600-
...NORTHEAST COLORADO...

CITY           SKY/WX    TMP DP  RH WIND       PRES   REMARKS
GREELEY ARPT   FAIR      63  46  54 CALM      30.08S
AKRON          FAIR      64  46  52 S8        30.06F
BURLINGTON     FAIR      57  50  77 S7        30.06R
WRAY           FAIR      63  52  67 W6        30.02R
YUMA           FAIR      59  45  58 W9        30.04R
STERLING       FAIR      59  52  77 CALM      30.01F
HOLYOKE        FAIR      63  55  77 CALM      30.01S
FORT MORGAN    FAIR      63  43  48 NE5       30.06F
$$

COZ086-089-092>099-250600-
...SOUTHEAST COLORADO...

CITY           SKY/WX    TMP DP  RH WIND       PRES   REMARKS
PUEBLO         FAIR      65  39  38 CALM      30.10R
LA JUNTA       FAIR      66  43  43 E6        30.03S
LAMAR          FAIR      61  46  57 E5        29.99S
SPRINGFIELD      N/A     68  43  40 SW7       30.02R
$$




USA.gov is the U.S. government's official web portal to all federal, state and local government web resources and services.